• In Hungary
  • List of Countries
  • For 7 days
  • Water Temperature
  • Satellite Maps
  • Weather Map
  • News
  • Weather Widgets
  • user-avatar
    Login

    Hourly Weather Boldyrevo

    Today, 14 November, Wednesday

    Time Temperature Precipitation Wind Pressure Humidity
    00:00 -6°C° 0 mm 1 mps 777 mmHg 33%
    01:00 -6°C° 0 mm 1 mps 776 mmHg 33%
    02:00 -6°C° 0 mm 1 mps 776 mmHg 33%
    03:00 -6°C° 0 mm 1 mps 776 mmHg 33%
    04:00 -6°C° 0 mm 1 mps 776 mmHg 33%
    05:00 -6°C° 0 mm 1 mps 776 mmHg 33%
    06:00 -7°C° 0 mm 1 mps 775 mmHg 33%
    07:00 -7°C° 0 mm 1 mps 775 mmHg 33%
    08:00 -6°C° 0 mm 1 mps 775 mmHg 31%
    09:00 -4°C° 0 mm 1 mps 775 mmHg 29%
    10:00 -3°C° 0 mm 1 mps 775 mmHg 27%
    11:00 -2°C° 0 mm 1 mps 775 mmHg 24%
    12:00 -2°C° 0 mm 0 mps 774 mmHg 22%
    13:00 -1°C° 0 mm 0 mps 774 mmHg 20%
    14:00 -2°C° 0 mm 0 mps 774 mmHg 20%
    15:00 -2°C° 0 mm 0 mps 774 mmHg 21%
    16:00 -2°C° 0 mm 0 mps 773 mmHg 22%
    17:00 -3°C° 0 mm 0 mps 773 mmHg 23%
    18:00 -2°C° 0 mm 1 mps 773 mmHg 23%
    19:00 -3°C° 0 mm 1 mps 773 mmHg 24%
    20:00 -3°C° 0 mm 1 mps 773 mmHg 24%
    21:00 -3°C° 0 mm 1 mps 773 mmHg 24%
    22:00 -3°C° 0 mm 1 mps 773 mmHg 24%
    23:00 -3°C° 0 mm 1 mps 773 mmHg 24%

    Tomorrow, 15 November, Thursday

    Time Temperature Precipitation Wind Pressure Humidity
    00:00 -3°C° 0 mm 1 mps 773 mmHg 24%
    01:00 -4°C° 0 mm 1 mps 773 mmHg 24%
    02:00 -4°C° 0 mm 1 mps 773 mmHg 24%
    03:00 -4°C° 0 mm 1 mps 773 mmHg 24%
    04:00 -4°C° 0 mm 1 mps 773 mmHg 24%
    05:00 -4°C° 0 mm 1 mps 773 mmHg 24%
    06:00 -4°C° 0 mm 1 mps 773 mmHg 24%
    07:00 -4°C° 0 mm 1 mps 773 mmHg 24%
    08:00 -3°C° 0 mm 1 mps 774 mmHg 23%
    09:00 -3°C° 0 mm 1 mps 774 mmHg 22%
    10:00 -4°C° 0 mm 2 mps 774 mmHg 20%
    11:00 -3°C° 0 mm 2 mps 774 mmHg 19%
    12:00 -2°C° 0 mm 2 mps 774 mmHg 17%
    13:00 -1°C° 0 mm 2 mps 774 mmHg 16%
    14:00 -1°C° 0 mm 2 mps 774 mmHg 17%
    15:00 -2°C° 0 mm 2 mps 774 mmHg 18%
    16:00 0°C° 0 mm 1 mps 774 mmHg 19%
    17:00 -3°C° 0 mm 2 mps 774 mmHg 20%
    18:00 -3°C° 0 mm 2 mps 774 mmHg 21%
    19:00 -4°C° 0 mm 2 mps 774 mmHg 22%
    20:00 -4°C° 0 mm 2 mps 774 mmHg 23%
    21:00 -4°C° 0 mm 2 mps 774 mmHg 23%
    22:00 -4°C° 0 mm 2 mps 775 mmHg 24%
    23:00 -5°C° 0 mm 2 mps 775 mmHg 25%

    Day after tomorrow, 16 November, Friday

    Time Temperature Precipitation Wind Pressure Humidity
    00:00 -5°C° 0 mm 2 mps 775 mmHg 25%
    01:00 -5°C° 0 mm 2 mps 775 mmHg 26%
    02:00 -5°C° 0 mm 2 mps 775 mmHg 26%
    03:00 -5°C° 0 mm 2 mps 775 mmHg 27%
    04:00 -6°C° 0 mm 2 mps 775 mmHg 28%
    05:00 -6°C° 0 mm 2 mps 775 mmHg 28%
    06:00 -6°C° 0 mm 2 mps 775 mmHg 29%
    07:00 -6°C° 0 mm 2 mps 775 mmHg 29%
    08:00 -5°C° 0 mm 2 mps 775 mmHg 28%
    09:00 -4°C° 0 mm 2 mps 775 mmHg 26%
    10:00 -4°C° 0 mm 2 mps 775 mmHg 25%
    11:00 -2°C° 0 mm 2 mps 775 mmHg 23%
    12:00 -1°C° 0 mm 2 mps 775 mmHg 22%
    13:00 +1°C° 0 mm 2 mps 775 mmHg 20%
    14:00 -1°C° 0 mm 2 mps 775 mmHg 22%
    15:00 -1°C° 0 mm 2 mps 774 mmHg 24%
    16:00 -2°C° 0 mm 2 mps 774 mmHg 25%
    17:00 -2°C° 0 mm 2 mps 774 mmHg 27%
    18:00 -3°C° 0 mm 2 mps 774 mmHg 28%
    19:00 -4°C° 0 mm 2 mps 774 mmHg 30%
    20:00 -4°C° 0 mm 2 mps 774 mmHg 30%
    21:00 -4°C° 0 mm 2 mps 774 mmHg 31%
    22:00 -4°C° 0 mm 2 mps 773 mmHg 31%
    23:00 -2°C° 0 mm 1 mps 773 mmHg 32%

    17 November, Saturday

    Time Temperature Precipitation Wind Pressure Humidity
    00:00 -3°C° 0 mm 1 mps 773 mmHg 32%
    01:00 -3°C° 0 mm 1 mps 773 mmHg 32%
    02:00 -3°C° 0 mm 1 mps 772 mmHg 32%
    03:00 -3°C° 0 mm 1 mps 772 mmHg 32%
    04:00 -3°C° 0 mm 1 mps 772 mmHg 32%
    05:00 -3°C° 0 mm 1 mps 772 mmHg 31%
    06:00 -3°C° 0 mm 1 mps 771 mmHg 31%
    07:00 -4°C° 0 mm 1 mps 771 mmHg 30%
    08:00 -3°C° 0 mm 1 mps 771 mmHg 28%
    09:00 -2°C° 0 mm 1 mps 770 mmHg 25%
    10:00 -1°C° 0 mm 1 mps 770 mmHg 23%
    11:00 0°C° 0 mm 1 mps 770 mmHg 21%
    12:00 +1°C° 0 mm 1 mps 769 mmHg 19%
    13:00 +1°C° 0 mm 2 mps 769 mmHg 16%
    14:00 -1°C° 0 mm 2 mps 768 mmHg 18%
    15:00 -1°C° 0 mm 2 mps 768 mmHg 19%
    16:00 -2°C° 0 mm 2 mps 767 mmHg 21%
    17:00 -2°C° 0 mm 2 mps 767 mmHg 21%
    18:00 -3°C° 0 mm 2 mps 766 mmHg 22%
    19:00 -4°C° 0 mm 2 mps 766 mmHg 22%
    20:00 -4°C° 0 mm 2 mps 766 mmHg 22%
    21:00 -4°C° 0 mm 2 mps 765 mmHg 22%
    22:00 -4°C° 0 mm 2 mps 765 mmHg 22%
    23:00 -4°C° 0 mm 2 mps 765 mmHg 22%

    18 November, Sunday

    Time Temperature Precipitation Wind Pressure Humidity
    00:00 -4°C° 0 mm 2 mps 764 mmHg 23%
    01:00 -3°C° 0 mm 1 mps 764 mmHg 23%
    02:00 -3°C° 0 mm 1 mps 764 mmHg 23%
    03:00 -3°C° 0 mm 1 mps 764 mmHg 23%
    04:00 -3°C° 0 mm 1 mps 763 mmHg 23%
    05:00 -3°C° 0 mm 1 mps 763 mmHg 23%
    06:00 -3°C° 0 mm 1 mps 763 mmHg 23%
    07:00 -4°C° 0 mm 1 mps 763 mmHg 23%
    08:00 -3°C° 0 mm 1 mps 763 mmHg 22%
    09:00 -2°C° 0 mm 1 mps 763 mmHg 21%
    10:00 -1°C° 0 mm 1 mps 763 mmHg 19%
    11:00 0°C° 0 mm 1 mps 763 mmHg 18%
    12:00 +1°C° 0 mm 1 mps 762 mmHg 17%
    13:00 +2°C° 0 mm 1 mps 762 mmHg 16%
    14:00 +1°C° 0 mm 1 mps 762 mmHg 17%
    15:00 +1°C° 0 mm 1 mps 762 mmHg 19%
    16:00 0°C° 0 mm 1 mps 762 mmHg 20%
    17:00 0°C° 0 mm 1 mps 762 mmHg 21%
    18:00 -3°C° 0 mm 2 mps 763 mmHg 21%
    19:00 -3°C° 0 mm 2 mps 763 mmHg 22%
    20:00 -3°C° 0 mm 2 mps 763 mmHg 22%
    21:00 -3°C° 0 mm 2 mps 763 mmHg 22%
    22:00 -3°C° 0 mm 2 mps 763 mmHg 22%
    23:00 -4°C° 0 mm 2 mps 763 mmHg 22%

    19 November, Monday

    Time Temperature Precipitation Wind Pressure Humidity
    00:00 -4°C° 0 mm 2 mps 764 mmHg 23%
    01:00 -4°C° 0 mm 2 mps 764 mmHg 23%
    02:00 -5°C° 0 mm 3 mps 764 mmHg 24%
    03:00 -5°C° 0 mm 3 mps 764 mmHg 26%
    04:00 -5°C° 0 mm 3 mps 764 mmHg 27%
    05:00 -5°C° 0 mm 3 mps 765 mmHg 29%
    06:00 -6°C° 0 mm 3 mps 765 mmHg 31%
    07:00 -6°C° 0 mm 3 mps 765 mmHg 33%
    08:00 -5°C° 0 mm 3 mps 765 mmHg 33%
    09:00 -4°C° 0 mm 3 mps 765 mmHg 32%
    10:00 -4°C° 0 mm 3 mps 766 mmHg 32%
    11:00 -2°C° 0 mm 3 mps 766 mmHg 31%
    12:00 -1°C° 0 mm 3 mps 766 mmHg 30%
    13:00 +1°C° 0 mm 3 mps 766 mmHg 29%
    14:00 0°C° 0 mm 3 mps 766 mmHg 32%
    15:00 -1°C° 0 mm 3 mps 766 mmHg 34%
    16:00 -1°C° 0 mm 3 mps 766 mmHg 37%
    17:00 -2°C° 0 mm 3 mps 766 mmHg 39%
    18:00 -2°C° 0 mm 3 mps 766 mmHg 42%
    19:00 -4°C° 0 mm 3 mps 766 mmHg 44%
    20:00 -4°C° 0 mm 3 mps 766 mmHg 45%
    21:00 -4°C° 0 mm 3 mps 766 mmHg 46%
    22:00 -4°C° 0 mm 3 mps 766 mmHg 47%
    23:00 -5°C° 0 mm 3 mps 766 mmHg 47%
    Show more